Regional Weather Roundup
Issued by NWS

Home | Current Version | Previous Version | Text Only | Print | Product List | Glossary On
Versions: 1 2 3 4 5 6 7 8 9 10 11 12 13 14 15 16 17 18 19 20 21 22 23 24 25 26 27
000
ASUS46 KSEW 290310
RWRWA

WASHINGTON REGIONAL WEATHER ROUNDUP
NATIONAL WEATHER SERVICE SEATTLE WA
800 PM PDT TUE MAR 28 2017

NOTE:"FAIR" INDICATES FEW OR NO CLOUDS BELOW 12,000 FEET WITH NO
SIGNIFICANT WEATHER AND/OR OBSTRUCTIONS TO VISIBILITY.

WAZ507-509-555>559-290400-
SEATTLE, TACOMA, EVERETT, AND VICINITY

CITY           SKY/WX    TMP DP  RH WIND       PRES   REMARKS
EVERETT        CLOUDY    50  43  77 SE21G31   30.15S
BOEING FIELD   CLOUDY    51  46  83 S13       30.18S
RENTON         CLOUDY    51  45  79 S12       30.18S
SEATAC AIRPORT CLOUDY    49  45  86 S10       30.18S
JBLM-MCCHORD   CLOUDY    48  48 100 S8        30.18S
PUYALLUP       DRIZZLE   50  45  81 S6        30.19R
BREMERTON      CLOUDY    46  45  93 S10       30.20R
JBLM-FT LEWIS  CLOUDY    51  47  86 SE15      30.17F
TACOMA NARROWS LGT RAIN  48  46  93 S6        30.19F
$$

WAZ001-503-506-510-514-515-290400-
NORTH INTERIOR

CITY           SKY/WX    TMP DP  RH WIND       PRES   REMARKS
BELLINGHAM     CLOUDY    50  44  80 SE16      30.11S
FRIDAY HARBOR  CLOUDY    50  47  89 SE12      30.11S
EASTSOUND      CLOUDY    50  45  81 S7        30.09F
PORT ANGELES   CLOUDY    47  45  93 CALM      30.09S
EDIZ HOOK      CLOUDY    48  45  90 W3        30.09F
PORT TOWNSEND  CLOUDY    52  46  82 VRB6G14   30.11S
NAS WHIDBEY    LGT RAIN  51  44  77 SE22G29   30.15S
ARLINGTON      CLOUDY    46  39  76 SE14      30.18S
BURLINGTON     CLOUDY    50  45  81 SE10G18   30.14S
$$

WAZ020-022-039-040-504-511-512-290400-
SOUTHWEST INTERIOR

CITY           SKY/WX    TMP DP  RH WIND       PRES   REMARKS
SHELTON        LGT RAIN  49  47  93 SE6       30.14S
OLYMPIA        LGT RAIN  49  43  80 S10       30.18S
CHEHALIS       CLOUDY    50  45  81 S9        30.19S
KELSO          CLOUDY    51  47  86 CALM      30.22F
VANCOUVER      CLOUDY    56  44  64 W6        30.22S
SCAPPOOSE, OR  CLOUDY    54  38  54 W3        30.22R
PORTLAND, OR   CLOUDY    56  41  57 SW6       30.23R
$$

WAZ021-516-517-290400-
WASHINGTON COAST

CITY           SKY/WX    TMP DP  RH WIND       PRES   REMARKS
FORKS          RAIN      49  49 100 VRB6      30.08F FOG
HOQUIAM        LGT RAIN  50  49  96 S22       30.14S
ASTORIA, OR    LGT RAIN  50  45  83 S12       30.17F
$$

WAZ019-023-024-040-567>569-290400-
CASCADE MOUNTAINS AND COLUMBIA GORGE

CITY           SKY/WX    TMP DP  RH WIND       PRES   REMARKS
STAMPEDE PASS  NOT AVBL
TROUTDALE, OR  CLOUDY    54  45  71 E5        30.22F
THE DALLES, OR CLOUDY    55  39  54 W6        30.22R
$$

WAZ026-027-041>044-520-521-290400-
EAST SLOPES

CITY           SKY/WX    TMP DP  RH WIND       PRES   REMARKS
OMAK           CLOUDY    51  34  52 S8        30.12R
WENATCHEE      CLOUDY    49  38  65 NW8       30.14R
ELLENSBURG     CLOUDY    47  37  68 W9        30.15S
YAKIMA         MOCLDY    54  36  50 SW7       30.16R
SUNNYSIDE ARPT CLOUDY    51  36  56 SW6       30.20S
$$

WAZ028-034-035-290400-
COLUMBIA BASIN

CITY           SKY/WX    TMP DP  RH WIND       PRES   REMARKS
EPHRATA        CLOUDY    49  37  63 S5        30.14S
MOSES LAKE     CLOUDY    50  40  68 S8        30.15F
PASCO          CLOUDY    55  38  52 SE10      30.22S
HERMISTON, OR  CLOUDY    53  42  66 CALM      30.21R
$$

WAZ036>038-290400-
NORTHEAST WASHINGTON

CITY           SKY/WX    TMP DP  RH WIND       PRES   REMARKS
SPOKANE GEIGER MOCLDY    43  39  86 S6        30.19R
SPOKANE FELTS  CLOUDY    45  40  82 S5        30.21S
FAIRCHILD AFB  CLOUDY    42  42 100 SW10      30.18S
COEURDALENE,ID LGT RAIN  41  39  93 SE9       30.21S
DEER PARK      CLOUDY    42  39  89 S7        30.19F
$$

WAZ029>033-290400-
SOUTHEAST WASHINGTON

CITY           SKY/WX    TMP DP  RH WIND       PRES   REMARKS
PULLMAN        CLOUDY    42  38  85 S3        30.24F
LEWISTON, ID   CLOUDY    47  42  83 SE9       30.25F
WALLA WALLA    CLOUDY    53  37  54 SE12      30.21F
PENDLETON, OR  CLOUDY    52  40  63 S10       30.20S
$$




USA.gov is the U.S. government's official web portal to all federal, state and local government web resources and services.